FW8630 Weather Reports


Display with metric or nautical units.
time (UTC)temp
F
wind
direction
speed
MPH
gust
MPH
rain 1hr
in
rain 24hr
in
rain mn
in
humidity
%
barometer
mb
20260507123023 56 340 6.0 14.0 0.00 0.00 0.00 58 1017.9
20260507121522 56 300 10.0 16.0 0.00 0.00 0.00 57 1017.8
20260507120026 57 299 8.0 14.0 0.00 0.00 0.00 55 1017.7
20260507114520 56 312 6.0 12.0 0.00 0.00 0.00 55 1017.6
20260507113019 57 307 5.0 13.0 0.00 0.00 0.00 52 1017.7
20260507111517 56 325 6.0 12.0 0.00 0.00 0.00 53 1017.8
20260507110017 56 312 5.0 13.0 0.00 0.00 0.00 55 1017.8
20260507104514 56 278 6.0 15.0 0.00 0.00 0.00 59 1017.7
20260507103013 56 336 7.0 14.0 0.00 0.00 0.00 56 1017.5
20260507101515 56 355 8.0 13.0 0.00 0.00 0.00 61 1017.4
20260507100009 55 312 6.0 13.0 0.00 0.00 0.00 56 1017.7
20260507094508 55 331 4.0 9.0 0.00 0.00 0.00 58 1017.2
20260507093004 54 24 1.0 11.0 0.00 0.00 0.00 53 1017.2
20260507091600 54 61 2.0 10.0 0.00 0.00 0.00 54 1017.1
20260507090101 53 9 3.0 11.0 0.00 0.00 0.00 53 1017.1
20260507084559 52 19 3.0 12.0 0.00 0.00 0.00 56 1016.9
20260507083052 51 348 6.0 14.0 0.00 0.00 0.00 55 1016.7
20260507081548 51 294 3.0 12.0 0.00 0.00 0.00 57 1016.8
20260507080100 51 336 4.0 13.0 0.00 0.00 0.00 57 1016.9
20260507074543 50 320 2.0 11.0 0.00 0.00 0.00 61 1016.7
20260507073041 50 346 8.0 14.0 0.00 0.00 0.00 59 1016.8
20260507071539 49 44 6.0 11.0 0.00 0.00 0.00 63 1016.7
20260507070038 49 319 6.0 13.0 0.00 0.00 0.00 65 1016.7
20260507064536 49 336 6.0 15.0 0.00 0.00 0.00 67 1016.5
20260507063031 49 18 6.0 12.0 0.00 0.00 0.00 74 1016.6
20260507061527 47 19 3.0 9.0 0.00 0.00 0.00 77 1016.7
20260507060027 45 355 5.0 9.0 0.00 0.00 0.00 81 1016.5
20260507054524 42 19 3.0 10.0 0.00 0.00 0.00 86 1016.5
20260507053014 39 355 3.0 8.0 0.00 0.00 0.00 89 1016.5
20260507051509 37 333 0.0 2.0 0.00 0.00 0.00 89 1016.5
20260507050007 36 333 0.0 2.0 0.00 0.00 0.00 89 1016.5
20260507044505 34 333 1.0 2.0 0.00 0.00 0.00 91 1016.5
20260507043006 32 333 0.0 2.0 0.00 0.00 0.00 92 1016.4
20260507041600 32 333 1.0 2.0 0.00 0.00 0.00 92 1016.4
20260507033051 30 55 0.0 0.0 0.00 0.00 0.00 94 1016.2
20260507031546 30 55 0.0 2.0 0.00 0.00 0.00 96 1016.1
20260507021544 31 55 1.0 3.0 0.00 0.00 0.00 96 1015.8
20260507020057 32 53 0.0 3.0 0.00 0.00 0.00 96 1015.7
20260507014536 33 52 1.0 4.0 0.00 0.00 0.00 96 1015.8
20260507013047 33 46 1.0 4.0 0.00 0.00 0.00 96 1015.7
20260507011534 33 62 2.0 5.0 0.00 0.00 0.00 96 1015.7
20260507010036 33 51 2.0 6.0 0.00 0.00 0.00 97 1015.6
20260507004530 33 64 2.0 4.0 0.00 0.00 0.00 97 1015.6
20260507003040 33 56 2.0 5.0 0.00 0.00 0.00 97 1015.7
20260507001530 33 58 2.0 5.0 0.00 0.00 0.00 97 1015.6
20260507000033 33 53 2.0 5.0 0.00 0.00 0.00 96 1015.7
20260506234527 33 47 2.0 5.0 0.00 0.00 0.00 96 1015.6
20260506233022 34 63 2.0 5.0 0.00 0.00 0.00 96 1015.7
20260506231520 34 40 3.0 5.0 0.00 0.00 0.00 95 1015.8
20260506230020 35 67 2.0 4.0 0.00 0.00 0.00 95 1015.8
20260506224517 35 65 1.0 4.0 0.00 0.00 0.00 95 1015.7
20260506223014 35 92 2.0 4.0 0.00 0.00 0.00 94 1015.8
20260506221512 36 41 2.0 5.0 0.00 0.00 0.00 94 1015.5
20260506220010 36 44 4.0 9.0 0.00 0.00 0.00 94 1015.4
20260506214509 36 42 3.0 6.0 0.00 0.00 0.00 94 1015.3
20260506213007 37 48 3.0 5.0 0.00 0.00 0.00 93 1015.3
20260506211509 38 49 2.0 4.0 0.00 0.00 0.00 92 1015.2
20260506210007 38 46 2.0 5.0 0.00 0.00 0.00 91 1015.2
20260506204506 39 49 2.0 5.0 0.00 0.00 0.00 90 1015.3
20260506203005 40 49 3.0 5.0 0.00 0.00 0.00 89 1015.1
20260506201506 40 50 2.0 5.0 0.00 0.00 0.00 88 1015.1
20260506200004 41 48 2.0 7.0 0.00 0.00 0.00 86 1015.1
20260506194504 42 51 4.0 8.0 0.00 0.00 0.00 85 1015.1
20260506193003 42 58 4.0 9.0 0.00 0.00 0.00 83 1015.0
20260506191503 43 30 4.0 7.0 0.00 0.00 0.00 81 1014.9
20260506190007 44 49 3.0 6.0 0.00 0.00 0.00 78 1015.0
20260506184502 44 52 3.0 11.0 0.00 0.00 0.00 76 1015.0
20260506183106 45 63 4.0 11.0 0.00 0.00 0.00 75 1014.8
20260506181623 45 38 5.0 12.0 0.00 0.00 0.00 73 1014.9
20260506180059 46 56 3.0 12.0 0.00 0.00 0.00 72 1014.7
20260506174558 46 37 6.0 14.0 0.00 0.00 0.00 70 1014.7
20260506173106 47 53 6.0 13.0 0.00 0.00 0.00 68 1014.7
20260506171600 47 58 4.0 15.0 0.00 0.00 0.00 66 1014.7
20260506170057 47 48 6.0 12.0 0.00 0.00 0.00 64 1014.7
20260506164607 48 51 3.0 11.0 0.00 0.00 0.00 65 1014.8
20260506163055 48 98 7.0 13.0 0.00 0.00 0.00 62 1014.7
20260506161555 48 27 4.0 15.0 0.00 0.00 0.00 63 1014.9
20260506154601 49 44 9.0 17.0 0.00 0.00 0.00 60 1014.9
20260506153111 49 62 5.0 14.0 0.00 0.00 0.00 62 1014.8
20260506151553 49 16 9.0 14.0 0.00 0.00 0.00 60 1014.9
20260506150059 50 108 7.0 16.0 0.00 0.00 0.00 59 1015.0
20260506144557 50 86 3.0 16.0 0.00 0.00 0.00 61 1014.9
20260506143050 50 61 6.0 16.0 0.00 0.00 0.00 60 1015.0
20260506141551 50 46 5.0 13.0 0.00 0.00 0.00 61 1014.9
20260506140050 50 56 6.0 15.0 0.00 0.00 0.00 61 1014.9
20260506134550 50 74 8.0 16.0 0.00 0.00 0.00 56 1014.9
20260506133049 51 68 8.0 18.0 0.00 0.00 0.00 57 1014.8
20260506131553 50 119 6.0 17.0 0.00 0.00 0.00 61 1015.0
20260506130048 51 54 8.0 15.0 0.00 0.00 0.00 58 1015.0
20260506124547 52 27 6.0 16.0 0.00 0.00 0.00 55 1015.0